rsna.org alexa rank chart, rsna.org alexa rank daily changes

rsna.org alexa rank chart, rsna.org alexa rank daily changes

rsna.org
Actual rank:
30 857

RANK HISTORY

Date Rank Diff
2017/11/22 30 857 -163
2017/11/21 31 020 -169
2017/11/20 31 189 -91
2017/11/19 31 280 +291
2017/11/18 30 989 +2
2017/11/17 30 987 -100
2017/11/16 31 087 -760
2017/11/15 31 847 -86
2017/11/14 31 933 -322
2017/11/13 32 255 +39
2017/11/12 32 216 -253
2017/11/11 32 469 -314
2017/11/10 32 783 +390
2017/11/09 32 393 -18
2017/11/08 32 411 -101
2017/11/07 32 512 -234
2017/11/06 32 746 +81
2017/11/05 32 665 +593
2017/11/04 32 072 -340
2017/11/03 32 412 -297
2017/11/02 32 709 -1
2017/11/01 32 710 +93
2017/10/31 32 617 -38
2017/10/30 32 655 +664
2017/10/29 31 991 +223
2017/10/28 31 768 +891
2017/10/27 30 877 -562
2017/10/26 31 439 +337
2017/10/25 31 102 -311
2017/10/24 31 413 +94
2017/10/23 31 319 -164
2017/10/22 31 483 +448
2017/10/21 31 035 +612
2017/10/20 30 423 -154
2017/10/19 30 577 -614
2017/10/18 31 191 -104
2017/10/17 31 295 -166
2017/10/16 31 461 -211
2017/10/14 31 672 +502
2017/10/13 31 170 -91
2017/10/12 31 261 +352
2017/10/11 30 909 -469
2017/10/10 31 378 -43
2017/10/09 31 421 -399
2017/10/08 31 820 -250
2017/10/07 32 070 +126
2017/10/06 31 944 +35
2017/10/05 31 909 -412
2017/10/04 32 321 +49
2017/10/03 32 272 +422
2017/10/02 31 850 +161
2017/10/01 31 689 +316
2017/09/30 31 373 -128
2017/09/29 31 501 +540
2017/09/28 30 961 +106
2017/09/27 30 855 -44
2017/09/26 30 899 -544
2017/09/25 31 443 +467
2017/09/24 30 976 -207
2017/09/23 31 183

WIDGET FOR YOUR SITE

DOMAINS WITH THE NEAREST RANK

Domain Rank
uniontestprep.com 30 852
iqna.ir 30 853
22.cn 30 854
5chajian.com 30 855
jokes4us.com 30 856
rsna.org 30 857
humankinetics.com 30 858
format.com 30 859
fanlink.to 30 860
mysexgames.com 30 861
myherocn.com 30 862

DOMAINS WITH THE NEAREST RANK BY TLD .org

Domain Rank
sdcard.org 30 656
skylots.org 30 710
iota.org 30 762
ppsspp.org 30 820
erotube.org 30 832
rsna.org 30 857
bookshare.org 30 871
fastbridge.org 30 922
readworks.org 30 926
websitesetup.org 30 960
pprune.org 30 969